Vorticity
15 8 3 28 -8 48 9 -7 24 16 3 67 -0 8 -1 -6 11 8 11 12 12 11 20 15 13 16 14 13 7 24 12 14 14 1 6 8 6 16 10 0 4 13 5 14 26 5 17 19 14 21 7 5 0 4
13 4 8 34 20 -7 62 9 -13 21 37 3 9 4 5 1 4 8 10 14 9 0 28 13 15 17 14 16 15 21 -1 32 9 7 9 6 11 14 8 10 16 14 -13 5 -8 23 -2 -7 14 12 12 2 4 1
14 3 4 33 15 31 16 16 -47 34 39 -2 5 4 8 2 10 10 10 11 15 17 15 14 14 14 14 16 16 14 4 23 11 5 5 2 -1 11 1 23 6 12 13 -0 3 18 15 5 10 -1 -1 -3 -2 9
9 -10 43 26 9 20 8 13 -22 28 44 1 7 7 4 5 1 12 12 12 6 -26 22 8 8 9 12 14 13 13 13 10 20 15 9 -0 8 25 7 0 3 1 5 9 16 14 -8 0 0 3 -1 0 5 3
15 3 46 -13 30 14 -11 10 22 -1 44 5 2 5 1 4 13 12 7 1 21 -13 18 6 6 8 9 11 10 11 12 13 10 17 7 11 13 3 5 5 5 12 13 5 9 1 5 -4 1 -1 -2 -5 0 2
7 3 35 -24 1 23 6 16 34 11 17 -1 8 1 2 9 1 12 6 9 -14 29 8 -1 7 7 6 7 7 8 10 11 13 14 14 17 12 4 10 14 11 8 9 13 8 6 3 4 4 7 12 24 26 19
4 25 18 15 48 0 42 28 12 24 6 4 1 8 2 5 9 16 5 20 15 4 3 11 0 6 6 6 5 6 6 7 9 11 9 7 11 14 10 11 9 25 26 27 25 32 28 23 18 12 9 10 12 14
9 46 -40 36 30 17 8 23 5 7 8 -2 4 6 6 -0 2 4 -3 23 3 8 -13 11 27 7 6 9 6 7 9 9 9 7 9 6 10 11 14 11 11 1 4 8 10 5 6 6 10 20 25 22 21 15
13 39 -3 9 15 9 42 0 32 23 -6 10 2 5 8 8 -6 -4 12 23 7 -10 4 21 8 19 7 11 8 9 10 12 13 8 8 10 11 9 3 6 12 8 8 5 5 8 10 9 8 10 21 20 17 9
12 28 12 6 20 -1 9 16 34 16 5 -1 5 7 8 2 -1 17 19 7 9 -2 1 18 4 12 4 7 8 4 12 9 11 11 12 14 19 13 13 9 7 10 10 6 12 10 15 14 12 9 17 15 20 21
12 18 5 3 41 26 13 21 32 15 -7 15 -3 -5 15 6 3 -7 2 11 12 14 20 12 9 11 4 7 7 5 12 10 11 14 8 12 17 17 12 8 9 8 11 4 3 10 16 17 17 16 12 14 14 18
15 28 2 10 36 -3 20 15 27 -10 10 2 9 6 29 2 -9 -12 24 8 22 9 19 14 7 7 6 5 -2 14 7 17 8 9 11 15 6 7 9 11 10 6 5 8 16 17 10 4 3 5 16 24 21 15
16 5 3 -19 36 19 22 20 26 3 -8 12 -12 17 -6 -14 15 19 18 13 15 1 22 8 10 2 8 8 11 11 12 12 13 12 12 15 1 6 7 7 5 6 14 14 7 3 2 1 -0 0 3 -0 -2 19
14 8 17 -21 30 22 10 38 -0 5 10 -17 -16 21 -7 28 16 22 7 -0 -1 10 13 24 14 2 4 13 7 8 10 10 10 8 13 10 2 2 7 6 5 9 9 8 8 10 11 10 8 8 8 6 8 8
14 11 30 35 34 21 20 14 2 -1 -10 7 -12 14 0 18 26 9 17 19 4 17 16 31 17 -10 21 -5 18 6 11 13 10 16 14 -0 -1 5 7 8 9 8 11 10 9 9 8 7 9 11 14 15 10 10
5 7 17 28 20 20 16 19 -6 3 -5 2 -19 18 28 -6 10 20 14 11 8 13 35 16 14 15 17 7 15 6 5 4 9 13 6 0 2 7 7 9 8 10 8 10 11 10 14 16 15 16 12 12 15 10
19 23 7 28 27 14 31 3 -3 -10 -9 17 -3 21 14 21 15 7 2 1 7 23 14 -12 17 -2 17 16 11 8 4 10 14 11 -0 -3 5 7 7 8 10 13 9 10 10 10 13 13 16 16 15 12 12 15
-1 19 12 14 29 12 17 7 -32 20 4 9 5 -1 9 21 1 4 10 -4 9 23 17 -1 -3 3 -4 5 -1 -1 7 10 9 4 -2 -0 9 9 8 10 10 9 13 12 14 15 11 10 18 19 20 14 14 16
6 12 11 30 9 20 9 -2 -33 19 13 4 15 18 18 8 9 6 -5 13 33 12 10 6 4 21 32 25 13 8 10 9 6 6 7 8 7 8 11 13 9 9 13 14 15 15 10 8 14 19 19 17 15 14
10 5 20 24 27 -11 -23 36 -7 9 14 13 19 6 3 7 1 -5 -4 21 6 5 5 6 2 2 -6 4 -4 -0 2 1 6 6 5 8 14 17 16 10 7 8 12 16 15 15 9 14 10 9 11 11 13 15
2 24 38 9 2 -43 51 15 -11 32 22 -1 6 5 4 -6 -14 19 34 20 8 10 -1 8 13 13 13 10 5 2 5 12 8 7 10 14 15 17 15 6 7 9 15 16 13 16 15 12 9 10 11 11 12 11
29 31 9 14 -9 -11 33 20 13 25 1 7 5 -6 -1 30 21 4 7 10 11 12 18 18 19 14 9 7 7 12 9 9 11 13 18 15 12 12 13 15 15 16 18 17 15 14 13 9 9 8 9 9 10 10
36 7 8 7 -52 -19 47 -4 33 8 2 -7 16 12 3 6 10 13 9 12 26 23 15 15 16 15 14 13 12 11 10 15 15 13 14 14 13 14 15 15 17 17 14 20 15 15 11 7 5 0 6 8 7 7
6 -25 -8 -8 -1 34 22 11 3 16 37 11 3 -3 8 7 7 9 8 14 21 14 10 7 6 11 12 14 16 17 14 13 12 9 8 10 12 11 12 13 16 17 17 14 15 18 13 8 3 -0 5 10 8 9
-58 -7 12 18 39 1 -2 1 11 6 8 2 5 -1 14 7 11 4 8 10 13 19 15 13 9 15 16 14 12 12 8 6 7 6 7 8 8 8 8 9 10 11 19 19 16 15 16 10 7 4 4 4 4 3
-56 18 15 41 37 17 27 10 12 12 3 -1 8 5 10 13 16 7 7 16 18 13 7 13 15 15 12 9 6 4 6 9 10 10 11 10 9 9 10 9 7 9 9 8 9 15 16 10 7 7 6 5 4 4
25 35 36 18 38 -1 8 7 4 1 -2 2 8 6 11 12 15 10 11 11 16 16 16 12 5 4 7 8 8 10 9 8 8 8 8 8 8 9 10 10 9 9 10 12 13 12 12 12 8 5 5 4 4 4
23 24 15 14 18 11 -1 3 -1 1 5 4 4 5 9 3 4 10 5 14 17 12 1 0 5 6 5 6 7 6 7 9 10 10 11 11 11 11 11 11 11 11 10 11 12 14 15 13 12 9 8 7 5 6
14 13 14 16 0 -1 7 1 -2 -1 -1 8 10 16 6 13 10 10 9 4 -1 -4 2 6 6 6 7 9 11 11 11 12 11 8 9 11 10 10 13 14 13 12 10 9 10 11 11 13 15 15 14 13 13 13
4 5 6 6 4 2 1 0 5 11 11 12 13 13 11 10 7 8 9 8 4 4 6 5 3 6 7 8 9 11 7 10 13 11 10 10 11 10 10 11 14 21 25 25 23 25 24 21 18 15 14 15 15 15
5 5 5 4 4 5 7 11 13 13 14 10 7 12 14 8 6 5 8 9 8 5 3 9 14 14 15 13 14 15 13 9 10 12 12 12 12 15 16 15 14 14 9 3 4 9 10 11 12 12 15 19 24 26
5 3 9 11 10 10 13 12 13 15 13 11 12 14 11 9 9 13 17 18 17 17 18 17 14 14 14 9 8 11 14 12 12 12 11 12 14 14 14 14 14 16 16 16 16 17 17 17 17 16 14 13 11 12
10 11 9 11 15 14 12 14 9 10 11 12 12 12 12 10 8 9 13 15 16 17 13 9 6 8 12 12 9 9 10 11 12 12 13 14 16 17 17 16 15 16 17 19 20 20 18 15 14 14 14 15 16 15
Height
2882 2888 2891 2891 2896 2902 2913 2916 2927 2936 2947 2956 2965 2971 2980 2984 2988 2993 2995 2996 2997 2999 2999 3001 3003 3006 3008 3011 3012 3016 3020 3021 3025 3028 3030 3032 3034 3037 3037 3038 3038 3040 3042 3041 3041 3042 3041 3038 3039 3041 3040 3039 3040 3040
2876 2883 2885 2889 2895 2900 2906 2915 2924 2935 2944 2955 2962 2971 2978 2984 2986 2990 2993 2995 2996 2998 3000 3001 3003 3005 3007 3010 3012 3013 3017 3017 3020 3024 3027 3029 3032 3034 3036 3037 3039 3040 3040 3040 3042 3039 3037 3036 3036 3036 3037 3037 3038 3038
2872 2878 2881 2888 2895 2899 2904 2911 2922 2935 2942 2953 2959 2969 2977 2980 2985 2989 2991 2994 2996 2998 3000 3001 3003 3006 3008 3009 3011 3014 3016 3016 3018 3022 3025 3027 3028 3031 3032 3034 3035 3036 3038 3039 3040 3038 3036 3036 3035 3035 3036 3035 3034 3034
2868 2874 2878 2884 2889 2894 2897 2909 2922 2934 2940 2952 2959 2968 2974 2978 2984 2989 2991 2995 2997 2999 3000 3003 3004 3007 3009 3010 3011 3013 3015 3016 3017 3020 3022 3023 3025 3027 3028 3030 3032 3034 3033 3032 3032 3034 3035 3034 3031 3030 3031 3030 3029 3029
2865 2870 2875 2881 2887 2892 2901 2910 2921 2931 2939 2951 2959 2968 2972 2979 2984 2988 2991 2995 2997 3002 3001 3003 3005 3008 3010 3012 3012 3014 3015 3016 3017 3019 3020 3021 3022 3025 3025 3026 3026 3028 3028 3030 3030 3029 3030 3029 3027 3025 3024 3024 3022 3021
2861 2866 2871 2878 2883 2888 2898 2908 2917 2928 2934 2951 2959 2968 2971 2978 2984 2988 2991 2995 2998 2999 3004 3003 3006 3008 3010 3013 3014 3014 3016 3016 3017 3018 3019 3019 3020 3022 3021 3020 3022 3022 3022 3023 3023 3022 3024 3023 3021 3019 3016 3015 3012 3011
2857 2862 2868 2874 2881 2889 2899 2908 2918 2926 2937 2950 2958 2966 2972 2977 2983 2986 2992 2995 2997 3000 3003 3005 3006 3009 3010 3011 3013 3014 3016 3016 3017 3017 3017 3017 3017 3019 3017 3016 3015 3016 3016 3016 3017 3018 3018 3016 3014 3012 3009 3007 3004 3002
2854 2859 2868 2873 2880 2890 2900 2907 2918 2925 2936 2949 2958 2964 2970 2976 2982 2987 2991 2993 2996 2999 3002 3003 3005 3007 3009 3011 3012 3012 3014 3015 3016 3016 3016 3016 3015 3015 3013 3012 3013 3013 3014 3014 3013 3013 3011 3011 3009 3006 3002 2998 2997 2996
2852 2858 2869 2872 2879 2892 2898 2907 2917 2922 2935 2950 2957 2965 2970 2976 2982 2987 2989 2993 2996 3002 3001 3002 3004 3007 3008 3009 3010 3012 3013 3014 3014 3014 3014 3014 3012 3011 3010 3010 3010 3011 3011 3011 3010 3008 3006 3004 3001 2998 2995 2993 2991 2990
2850 2856 2867 2872 2880 2892 2898 2906 2915 2925 2938 2949 2957 2962 2969 2975 2982 2987 2990 2993 2996 2998 2999 3000 3003 3003 3007 3008 3009 3011 3011 3011 3011 3013 3012 3009 3007 3007 3008 3008 3008 3009 3008 3007 3006 3005 3002 2999 2997 2995 2992 2989 2987 2986
2849 2855 2864 2871 2880 2889 2897 2908 2917 2926 2936 2946 2953 2960 2967 2975 2982 2986 2989 2991 2993 2995 2996 2998 3000 3003 3005 3007 3007 3009 3008 3009 3009 3011 3010 3006 3005 3006 3006 3006 3006 3005 3004 3003 3001 2998 2995 2994 2991 2990 2988 2987 2984 2982
2847 2854 2861 2870 2880 2888 2896 2908 2917 2926 2936 2947 2956 2964 2968 2976 2980 2985 2986 2988 2987 2991 2991 2994 2997 3001 3003 3005 3006 3007 3007 3008 3007 3008 3007 3003 3004 3003 3003 3002 3002 3002 3001 2999 2996 2995 2992 2990 2987 2985 2983 2981 2979 2977
2842 2851 2860 2870 2879 2888 2898 2909 2917 2928 2940 2950 2958 2962 2966 2970 2973 2976 2976 2978 2982 2985 2988 2990 2995 2998 3001 3004 3004 3005 3005 3005 3006 3004 3001 3000 3001 3000 3000 2999 2998 2997 2996 2994 2993 2992 2990 2987 2985 2983 2980 2978 2976 2974
2837 2848 2858 2869 2878 2887 2900 2910 2920 2929 2943 2950 2953 2957 2961 2963 2965 2967 2971 2976 2981 2984 2986 2988 2991 2996 2998 3000 3001 3000 3002 3003 3002 3000 2996 2997 2998 2997 2996 2996 2994 2993 2991 2990 2989 2987 2985 2982 2979 2977 2975 2973 2972 2970
2835 2847 2857 2866 2876 2886 2900 2911 2919 2932 2940 2947 2952 2954 2955 2958 2962 2966 2970 2974 2978 2981 2984 2986 2989 2993 2996 2998 2998 2998 2998 2997 2995 2993 2993 2994 2994 2994 2992 2992 2990 2988 2986 2985 2983 2980 2978 2976 2973 2971 2969 2967 2966 2965
2836 2847 2855 2865 2875 2889 2901 2912 2921 2931 2940 2946 2947 2949 2952 2958 2961 2965 2969 2973 2976 2980 2982 2985 2987 2989 2992 2994 2994 2993 2993 2990 2990 2990 2991 2991 2991 2990 2988 2987 2985 2983 2980 2979 2977 2975 2973 2969 2967 2964 2963 2961 2959 2959
2834 2841 2851 2865 2878 2893 2904 2913 2921 2933 2939 2941 2946 2948 2951 2956 2961 2964 2967 2970 2974 2978 2981 2983 2983 2985 2987 2988 2989 2988 2987 2987 2988 2987 2988 2988 2987 2985 2984 2982 2979 2977 2975 2972 2971 2968 2966 2964 2961 2958 2956 2954 2953 2953
2833 2840 2852 2865 2880 2892 2902 2912 2920 2929 2936 2940 2944 2948 2951 2955 2958 2962 2965 2968 2973 2977 2979 2980 2981 2981 2983 2984 2985 2986 2984 2984 2984 2984 2983 2983 2982 2980 2978 2976 2973 2971 2969 2966 2964 2962 2960 2958 2955 2953 2951 2949 2948 2947
2829 2840 2854 2868 2879 2890 2902 2912 2921 2928 2933 2938 2942 2946 2950 2954 2957 2961 2963 2967 2971 2974 2976 2977 2978 2976 2979 2980 2980 2980 2980 2980 2980 2979 2979 2978 2976 2974 2972 2969 2967 2965 2963 2961 2960 2958 2956 2954 2952 2950 2947 2945 2943 2941
2837 2849 2861 2875 2885 2894 2903 2912 2920 2926 2930 2935 2940 2945 2950 2953 2957 2959 2962 2965 2967 2969 2971 2971 2972 2974 2975 2975 2975 2975 2974 2975 2975 2974 2973 2972 2969 2967 2964 2962 2960 2959 2957 2955 2954 2952 2951 2950 2948 2946 2944 2942 2939 2938
2841 2853 2866 2875 2880 2891 2897 2906 2916 2923 2929 2934 2939 2943 2947 2951 2954 2957 2959 2961 2962 2963 2964 2967 2969 2969 2969 2969 2969 2968 2970 2969 2968 2966 2965 2964 2962 2960 2958 2956 2953 2952 2950 2949 2948 2947 2946 2945 2944 2942 2941 2939 2937 2935
2840 2855 2865 2873 2883 2891 2898 2903 2911 2917 2925 2930 2937 2941 2946 2949 2952 2954 2955 2955 2955 2957 2960 2961 2961 2962 2962 2962 2963 2964 2964 2963 2961 2960 2958 2956 2955 2953 2952 2949 2946 2945 2943 2942 2941 2941 2941 2941 2940 2938 2937 2935 2933 2932
2844 2858 2866 2873 2883 2892 2900 2906 2911 2917 2923 2929 2935 2940 2945 2946 2947 2950 2950 2949 2951 2953 2953 2955 2956 2957 2958 2958 2958 2957 2956 2955 2955 2953 2952 2951 2948 2946 2944 2942 2939 2938 2937 2935 2934 2934 2934 2935 2935 2934 2933 2931 2930 2928
2852 2860 2869 2878 2885 2890 2896 2902 2909 2916 2921 2928 2934 2939 2941 2943 2944 2945 2944 2946 2949 2948 2949 2950 2951 2952 2952 2952 2951 2951 2950 2949 2949 2947 2946 2945 2943 2941 2939 2936 2934 2932 2930 2929 2928 2928 2928 2928 2928 2928 2927 2926 2925 2924
2859 2867 2873 2877 2884 2891 2895 2901 2906 2913 2919 2927 2933 2935 2937 2939 2940 2940 2939 2942 2942 2943 2944 2945 2946 2946 2947 2946 2946 2946 2945 2944 2944 2943 2940 2938 2936 2935 2933 2932 2929 2927 2925 2924 2922 2922 2922 2921 2921 2921 2920 2919 2918 2917
2857 2864 2871 2874 2880 2890 2895 2902 2908 2913 2920 2925 2929 2932 2933 2935 2936 2936 2936 2937 2938 2939 2939 2940 2941 2942 2942 2942 2941 2941 2940 2938 2937 2935 2934 2931 2928 2927 2926 2925 2924 2922 2919 2917 2916 2915 2914 2913 2912 2912 2911 2910 2909 2909
2857 2863 2869 2874 2881 2889 2896 2902 2909 2914 2918 2923 2925 2927 2929 2930 2930 2932 2932 2933 2934 2934 2935 2936 2937 2937 2938 2937 2936 2935 2933 2931 2929 2928 2926 2923 2921 2920 2918 2917 2915 2913 2912 2909 2906 2905 2904 2903 2902 2901 2901 2900 2900 2898
2860 2868 2873 2878 2884 2892 2897 2903 2908 2913 2917 2919 2922 2923 2925 2926 2927 2928 2929 2930 2931 2931 2932 2933 2933 2932 2931 2931 2929 2928 2926 2924 2922 2920 2918 2915 2913 2911 2908 2906 2904 2902 2900 2898 2896 2894 2892 2891 2890 2889 2888 2888 2887 2887
2865 2870 2876 2880 2887 2892 2898 2903 2907 2911 2913 2916 2918 2920 2921 2922 2924 2925 2926 2927 2928 2928 2928 2928 2927 2925 2924 2923 2922 2920 2918 2915 2913 2911 2909 2907 2905 2902 2899 2895 2893 2890 2887 2885 2883 2881 2879 2878 2876 2875 2874 2873 2873 2873
2870 2874 2878 2882 2888 2893 2899 2902 2906 2908 2910 2912 2914 2916 2917 2919 2920 2922 2923 2923 2924 2923 2923 2921 2920 2918 2917 2915 2914 2912 2909 2906 2903 2901 2897 2895 2892 2890 2886 2883 2881 2877 2874 2871 2869 2867 2865 2863 2862 2861 2860 2859 2858 2857
2872 2876 2881 2885 2889 2893 2897 2900 2902 2905 2907 2908 2910 2913 2914 2916 2917 2918 2918 2918 2917 2916 2915 2913 2912 2910 2909 2907 2905 2903 2901 2898 2894 2891 2888 2884 2881 2877 2874 2870 2867 2865 2862 2860 2858 2856 2854 2851 2849 2848 2846 2845 2843 2842
2874 2877 2881 2884 2888 2891 2894 2897 2899 2902 2904 2906 2908 2909 2911 2911 2912 2913 2913 2911 2909 2908 2907 2906 2904 2903 2901 2899 2897 2894 2891 2888 2884 2881 2877 2872 2869 2865 2861 2858 2855 2852 2849 2846 2844 2842 2839 2837 2836 2835 2834 2833 2832 2831
2873 2876 2879 2882 2885 2889 2892 2896 2898 2900 2901 2902 2903 2904 2905 2906 2906 2907 2906 2905 2904 2902 2901 2899 2898 2896 2894 2892 2889 2885 2882 2878 2873 2869 2865 2860 2856 2852 2849 2845 2842 2838 2835 2832 2829 2826 2824 2822 2822 2821 2820 2820 2820 2819